ZL1UCH Weather Reports


time (UTC)temp
C
wind
direction
speed
KPH
gust
KPH
rain 1hr
cm
rain 24hr
cm
rain mn
cm
humidity
%
barometer
mb
20260505023041 20 116 6.4 12.9 0.00 0.00 0.00 81 1028.5
20260505021538 20 102 6.4 22.5 0.00 0.00 0.00 80 1028.6
20260505020036 20 39 4.8 14.5 0.00 0.00 0.00 80 1028.6
20260505014601 20 46 4.8 17.7 0.00 0.00 0.00 77 1028.8
20260505013042 20 51 11.3 22.5 0.00 0.00 0.00 75 1028.9
20260505011552 20 56 4.8 19.3 0.00 0.00 0.00 75 1029.1
20260505010037 20 89 12.9 25.7 0.00 0.00 0.00 72 1029.2
20260505004540 20 108 9.7 19.3 0.00 0.00 0.00 72 1029.3
20260505003035 19 61 12.9 20.9 0.00 0.00 0.00 78 1029.6
20260505001542 20 22 9.7 20.9 0.00 0.00 0.00 80 1029.8
20260505000054 20 124 6.4 16.1 0.00 0.00 0.00 80 1029.9
20260504234546 19 167 8.0 22.5 0.00 0.00 0.00 78 1030.0
20260504233055 19 52 8.0 20.9 0.00 0.00 0.00 79 1030.0
20260504231538 19 46 12.9 24.1 0.00 0.00 0.00 78 1030.2
20260504230043 19 96 14.5 27.4 0.00 0.00 0.00 79 1030.2
20260504224543 19 79 11.3 24.1 0.00 0.00 0.00 80 1030.1
20260504223054 20 15 6.4 19.3 0.00 0.00 0.00 78 1030.2
20260504221538 19 155 6.4 24.1 0.00 0.00 0.00 77 1030.3
20260504220036 20 56 6.4 16.1 0.00 0.00 0.00 75 1030.3
20260504214535 19 57 9.7 19.3 0.00 0.00 0.00 76 1030.2
20260504213053 18 68 12.9 20.9 0.00 0.00 0.00 76 1030.2
20260504211539 18 8 4.8 17.7 0.00 0.00 0.00 80 1030.5
20260504210051 18 51 4.8 9.7 0.00 0.00 0.00 81 1030.5
20260504204544 18 52 3.2 12.9 0.00 0.00 0.00 81 1030.5
20260504203058 18 67 8.0 16.1 0.00 0.00 0.00 81 1030.7
20260504201535 18 49 3.2 9.7 0.00 0.00 0.00 80 1030.7
20260504200041 17 41 3.2 9.7 0.00 0.00 0.00 80 1030.7
20260504194537 17 288 3.2 11.3 0.00 0.00 0.00 80 1030.6
20260504193037 17 95 3.2 11.3 0.00 0.00 0.00 80 1030.3
20260504191536 17 61 3.2 9.7 0.00 0.00 0.00 80 1030.2
20260504190037 17 4 6.4 14.5 0.00 0.00 0.00 80 1030.1
20260504184540 17 106 6.4 19.3 0.00 0.00 0.00 80 1030.1
20260504183037 17 49 6.4 11.3 0.00 0.00 0.00 80 1029.9
20260504181543 17 25 6.4 14.5 0.00 0.00 0.00 79 1029.9
20260504180035 18 318 4.8 19.3 0.00 0.00 0.00 79 1030.0
20260504174536 17 95 6.4 14.5 0.00 0.00 0.00 79 1029.9
20260504173036 18 25 6.4 16.1 0.00 0.00 0.00 79 1029.9
20260504171542 18 78 8.0 22.5 0.00 0.00 0.00 79 1029.9
20260504081541 17 104 14.5 32.2 0.00 0.00 0.00 80 1031.4
20260504044546 18 124 8.0 19.3 0.00 0.00 0.00 74 1030.7
20260504043039 18 134 8.0 24.1 0.00 0.00 0.00 73 1030.7
20260504041541 18 128 20.9 29.0 0.00 0.00 0.00 72 1030.6
20260504040100 18 129 16.1 25.7 0.00 0.00 0.00 72 1030.6
20260504034553 18 121 17.7 27.4 0.00 0.00 0.00 72 1030.5
20260504033046 18 137 12.9 25.7 0.00 0.00 0.00 74 1030.5
20260504031545 18 121 16.1 30.6 0.00 0.00 0.00 77 1030.4
20260504030104 18 127 24.1 32.2 0.00 0.00 0.00 75 1030.3
20260504024554 18 129 25.7 32.2 0.00 0.00 0.00 73 1030.4